Regional Weather Roundup
Issued by NWS Northern Indiana

Home | Current Version | Previous Version | Text Only | Print | Product List | Glossary On
Versions: 1 2 3 4 5 6 7 8 9 10 11 12 13 14 15 16 17 18 19 20 21 22 23 24 25 26 27 28 29 30 31 32 33 34 35 36 37 38 39 40 41 42 43 44 45 46 47 48 49 50
000
ASUS43 KIWX 241811
RWRIWX

KIWX WEATHER ROUNDUP
NATIONAL WEATHER SERVICE NORTHERN INDIANA
200 PM EDT SUN SEP 24 2017

NOTE: "FAIR" INDICATES FEW OR NO CLOUDS BELOW 12,000 FEET WITH NO
SIGNIFICANT WEATHER AND/OR OBSTRUCTIONS TO VISIBILITY.

* THESE STATIONS ARE NOT UNDER NWS QUALITY CONTROL. THEY ALSO MAY NOT
  REPORT WEATHER SUCH AS PRECIPITATION OR FOG.

INZ001>027-241900-
NORTHERN INDIANA

CITY           SKY/WX    TMP DP  RH WIND       PRES   REMARKS
GARY*          SUNNY     90  55  31 S6        30.08F
VALPARAISO     SUNNY     91  60  35 SE8       30.08F
6HR MIN TEMP:  64; 6HR MAX TEMP:  91;

MICHIGAN CITY* SUNNY     90  59  35 S5        30.09F
LAPORTE*       SUNNY     88  59  37 S9        30.10F
6HR MIN TEMP:  62; 6HR MAX TEMP:  88;

KNOX*          SUNNY     88  59  37 SE9       30.08F
SOUTH BEND     SUNNY     88  57  34 SE12      30.10F
6HR MIN TEMP:  66; 6HR MAX TEMP:  88;

GOSHEN         SUNNY     88  56  33 SE10      30.11F
6HR MIN TEMP:  63; 6HR MAX TEMP:  88;

MONTICELLO*    SUNNY     88  58  36 CALM      30.07F
6HR MIN TEMP:  64; 6HR MAX TEMP:  88;

LOGANSPORT*    SUNNY     88  55  33 E12       30.09F
WARSAW*        SUNNY     86  59  39 SE6       30.11F
AUBURN*        SUNNY     88  54  31 E3        30.12F
FORT WAYNE     MOSUNNY   87  57  35 SE10      30.11F
6HR MIN TEMP:  62; 6HR MAX TEMP:  87;

HUNTINGTON*    SUNNY     88  55  31 SE6       30.10F
6HR MIN TEMP:  60; 6HR MAX TEMP:  88;

PERU/GRISSOM   SUNNY     88  58  36 E8        30.08F
6HR MIN TEMP:  64; 6HR MAX TEMP:  88;

MARION*        SUNNY     88  55  33 SE8       30.10F

$$
INZ028>050-241900-
CENTRAL INDIANA

CITY           SKY/WX    TMP DP  RH WIND       PRES   REMARKS
LAFAYETTE      SUNNY     87  66  49 CALM      30.06F
6HR MIN TEMP:  63; 6HR MAX TEMP:  87;

KOKOMO*        SUNNY     87  61  41 SE8       30.10F
6HR MIN TEMP:  62; 6HR MAX TEMP:  87;

MUNCIE*        SUNNY     91  53  27 VRB5      30.09F
6HR MIN TEMP:  60; 6HR MAX TEMP:  91;

INDIANAPOLIS   MOSUNNY   88  59  37 E6        30.08F
6HR MIN TEMP:  68; 6HR MAX TEMP:  89;


$$
MIZ043>046-050>051-056>058-064>065-071>073-077>080-241900-
SOUTHWEST LOWER MICHIGAN

CITY           SKY/WX    TMP DP  RH WIND       PRES   REMARKS
BATTLE CREEK   SUNNY     90  57  32 SE8       30.13F
6HR MIN TEMP:  63; 6HR MAX TEMP:  90;

BENTON HARBOR  SUNNY     89  55  31 SE8       30.09F
6HR MIN TEMP:  66; 6HR MAX TEMP:  91;

COLDWATER*     SUNNY     87  54  32 S6        30.13F
6HR MIN TEMP:  61; 6HR MAX TEMP:  88;

HILLSDALE*     MOSUNNY   88  57  35 SE5       30.14F
HOLLAND        SUNNY     92  61  35 SW7       30.10F
6HR MIN TEMP:  64; 6HR MAX TEMP:  92;

GRAND RAPIDS   MOSUNNY   92  55  28 S9        30.10F
6HR MIN TEMP:  64; 6HR MAX TEMP:  92;

KALAMAZOO      SUNNY     91  53  27 MISG      30.12F
6HR MIN TEMP:  60; 6HR MAX TEMP:  91;

STURGIS*       SUNNY     88  57  34 SE12      30.12F
6HR MIN TEMP:  65; 6HR MAX TEMP:  88;

THREE RIVERS*  FAIR      90  54  29 SE6       30.12S
6HR MIN TEMP:  62; 6HR MAX TEMP:  91;


$$
OHZ001>008-015>018-024>025-241900-
NORTHWEST OHIO

CITY           SKY/WX    TMP DP  RH WIND       PRES   REMARKS
WAUSEON*       FAIR      90  57  33 VRB6      30.12F
DEFIANCE       SUNNY     88  57  34 SE7       30.11F
6HR MIN TEMP:  60; 6HR MAX TEMP:  88;

FINDLAY        SUNNY     88  58  36 SE5       30.11F
6HR MIN TEMP:  66; 6HR MAX TEMP:  89;

TOLEDO EXPRESS SUNNY     91  59  33 E9        30.12F
6HR MIN TEMP:  62; 6HR MAX TEMP:  91;

TOLEDO METCALF SUNNY     90  60  36 VRB6      30.12F
6HR MIN TEMP:  64; 6HR MAX TEMP:  90;

LIMA           SUNNY     89  55  31 SE8       30.12F
6HR MIN TEMP:  60; 6HR MAX TEMP:  90;


$$
AND FOR LAKE MICHIGAN COASTAL AND OPEN LAKE BUOY OBSERVATIONS

STATION/POSITION TEMP    WIND        PRES    VSBY  WAVE
                 AIR SEA DIR/SP/G                  HT/PER
                 (F)     (DEG/KT/KT) (MB)    (MI)  (FT/S)
CALUMET HARBOR    80      50/  7/  8 1017.8F
MICHIGAN CITY     86     140/  8/ 10   N/A
BURNS HARBOR      88     150/  6/ 11 1018.6F
SAINT JOSEPH      87     310/  1/  3 1019.0
SOUTH LAKE BUOY   73 71  160/  8/  8 1018.9F         1
4 MI NW BRIDGMAN  76 74  360/  4/  4 1018.5          0
MICHIGAN CITY     78 74   40/  6/  6   N/A           0

$$
&&




USA.gov is the U.S. government's official web portal to all federal, state and local government web resources and services.